Waarnemingen

Advertentie
Mijn weer
J6-A, Nederland (6211): temperatuur & dauwpunt: 17.10.2018 14:00:00 - 23.10.2018 14:00:00 (CEST)J6-A, Nederland (6211): windsnelheid & windstoten: 17.10.2018 14:00:00 - 23.10.2018 14:00:00 (CEST)J6-A, Nederland (6211): windrichting: 17.10.2018 14:00:00 - 23.10.2018 14:00:00 (CEST)J6-A, Nederland (6211): luchtdruk: 17.10.2018 14:00:00 - 23.10.2018 14:00:00 (CEST)J6-A, Nederland (6211): zicht: 17.10.2018 14:00:00 - 23.10.2018 14:00:00 (CEST)
Datum & Tijd tt [°C] td [°C] ff [km/u] ff [kn] fx [km/u] fx [kn] dd ppp [hPa] vv [km]
23.10.2018 14:00:00 14,0 9,0 72 39 - - WNW 1021,0 10
23.10.2018 13:00:00 13,5 9,2 57 31 76 41 W 1021,2 10
23.10.2018 12:00:00 13,2 9,3 61 33 65 35 W 1021,2 10
23.10.2018 11:00:00 12,9 8,8 63 34 68 37 W 1021,0 10
23.10.2018 10:00:00 12,8 9,2 67 36 65 35 W 1021,5 12
23.10.2018 09:00:00 12,6 9,1 63 34 68 37 W 1021,8 -
23.10.2018 08:00:00 12,7 8,5 68 37 65 35 W 1021,9 10
23.10.2018 07:00:00 12,6 8,2 67 36 65 35 W 1022,8 10
23.10.2018 06:00:00 12,6 8,2 67 36 68 37 W 1023,6 10
23.10.2018 05:00:00 12,5 8,0 67 36 68 37 W 1024,2 10
23.10.2018 04:00:00 12,5 8,2 67 36 68 37 W 1025,2 10
23.10.2018 03:00:00 12,7 8,9 68 37 65 35 W 1026,3 10
23.10.2018 02:00:00 12,3 8,5 61 33 61 33 W 1027,5 10
23.10.2018 01:00:00 12,2 8,1 61 33 61 33 W 1028,4 10
23.10.2018 00:00:00 12,2 7,9 67 36 65 35 W 1029,6 10
22.10.2018 23:00:00 12,4 7,1 63 34 61 33 WZW 1030,4 10
22.10.2018 22:00:00 12,5 6,4 55 30 54 29 WZW 1031,5 10
22.10.2018 21:00:00 12,0 6,9 44 24 47 25 WZW 1032,4 10
22.10.2018 20:00:00 11,7 5,5 37 20 40 21 W 1033,1 10
22.10.2018 19:00:00 11,6 5,5 37 20 36 19 W 1033,4 10
22.10.2018 18:00:00 11,6 3,4 28 15 32 18 W 1033,6 10
22.10.2018 17:00:00 11,5 4,0 31 17 32 18 WNW 1034,2 10
22.10.2018 16:00:00 11,5 3,9 31 17 36 19 NW 1034,2 10
22.10.2018 15:00:00 11,6 3,2 28 15 36 19 - 1034,8 10
22.10.2018 14:00:00 11,7 4,5 29 16 32 18 NW 1034,9 10
22.10.2018 13:00:00 11,4 3,1 31 17 36 19 NW 1035,3 10
22.10.2018 12:00:00 11,5 4,0 34 18 43 23 NW 1034,7 10
22.10.2018 11:00:00 11,6 3,5 37 20 47 25 NW 1034,3 10
22.10.2018 10:00:00 11,4 4,5 41 22 43 23 NW 1033,7 10
22.10.2018 09:00:00 11,5 4,7 41 22 40 21 NW 1032,8 10
22.10.2018 08:00:00 11,7 5,0 39 21 43 23 NW 1032,1 10
22.10.2018 07:00:00 11,7 4,9 41 22 47 25 NW 1031,5 10
22.10.2018 06:00:00 11,8 5,2 41 22 43 23 NW 1030,8 10
22.10.2018 05:00:00 12,0 6,1 39 21 43 23 NW 1030,3 10
22.10.2018 04:00:00 12,2 7,0 41 22 47 25 NW 1029,8 10
22.10.2018 03:00:00 12,6 7,6 46 25 47 25 NW 1029,2 10
22.10.2018 02:00:00 12,8 7,7 48 26 50 27 NW 1029,0 10
22.10.2018 01:00:00 12,9 8,2 46 25 50 27 NW 1028,1 10
22.10.2018 00:00:00 13,3 9,0 50 27 50 27 NW 1027,8 10
21.10.2018 23:00:00 13,6 10,3 44 24 50 27 NW 1027,0 10
21.10.2018 22:00:00 14,2 10,8 50 27 47 25 NW 1026,3 10
21.10.2018 21:00:00 14,7 13,3 34 18 36 19 WNW 1025,3 10
21.10.2018 20:00:00 14,2 12,9 26 14 36 19 W 1025,1 10
21.10.2018 19:00:00 14,2 12,5 34 18 36 19 W 1024,6 10
21.10.2018 18:00:00 13,8 12,0 34 18 36 19 WZW 1024,1 10
21.10.2018 17:00:00 13,9 11,1 39 21 43 23 ZW 1024,3 10
21.10.2018 16:00:00 13,9 10,9 39 21 40 21 ZW 1024,4 10
21.10.2018 15:00:00 13,9 11,3 31 17 32 18 ZW 1024,5 10
21.10.2018 14:00:00 13,9 11,7 34 18 36 19 ZW 1025,0 10
21.10.2018 13:00:00 13,6 11,8 28 15 29 16 ZZW 1025,2 10
21.10.2018 12:00:00 13,5 12,0 29 16 29 16 ZW 1025,5 10
21.10.2018 11:00:00 13,7 11,9 29 16 29 16 ZW 1025,8 10
21.10.2018 10:00:00 13,8 11,8 26 14 29 16 ZZW 1026,0 10
21.10.2018 09:00:00 13,9 12,4 29 16 29 16 ZW 1025,9 10
21.10.2018 08:00:00 14,1 11,9 26 14 25 14 ZW 1025,8 10
21.10.2018 07:00:00 14,2 11,9 24 13 25 14 ZW 1026,1 10
21.10.2018 06:00:00 14,4 12,1 22 12 25 14 ZW 1026,4 10
21.10.2018 05:00:00 14,4 12,1 24 13 22 12 ZW 1026,6 10
21.10.2018 04:00:00 14,5 12,1 24 13 22 12 ZW 1027,3 10
21.10.2018 03:00:00 14,5 12,0 22 12 22 12 ZZW 1027,4 10
21.10.2018 02:00:00 14,6 11,8 21 11 22 12 ZW 1027,8 10
21.10.2018 01:00:00 14,6 11,6 22 12 25 14 ZW 1028,2 10
21.10.2018 00:00:00 14,7 11,7 28 15 29 16 ZW 1028,4 10
20.10.2018 23:00:00 14,7 11,7 34 18 36 19 WZW 1028,7 10
20.10.2018 22:00:00 14,5 11,8 31 17 32 18 ZW 1029,0 10
20.10.2018 21:00:00 14,3 11,5 31 17 32 18 ZZW 1029,1 10
20.10.2018 20:00:00 14,0 11,3 35 19 32 18 ZW 1029,1 10
20.10.2018 19:00:00 13,6 10,9 31 17 32 18 ZW 1029,0 10
20.10.2018 18:00:00 13,5 10,7 22 12 25 14 ZZW 1029,0 10
20.10.2018 17:00:00 13,7 11,2 26 14 29 16 ZW 1029,5 10
20.10.2018 16:00:00 13,5 11,0 31 17 29 16 WZW 1029,3 10
20.10.2018 15:00:00 13,5 10,8 29 16 29 16 ZW 1029,7 10
20.10.2018 14:00:00 13,5 10,8 24 13 25 14 ZW 1030,2 10
20.10.2018 13:00:00 13,5 10,7 18 10 18 10 ZW 1030,4 10
20.10.2018 12:00:00 13,5 10,4 18 10 18 10 WZW 1030,3 10
20.10.2018 11:00:00 13,6 10,3 16 9 18 10 WZW 1030,2 10
20.10.2018 10:00:00 13,5 10,2 16 9 18 10 W 1029,7 10
20.10.2018 09:00:00 13,5 10,3 21 11 22 12 WZW 1029,1 10
20.10.2018 08:00:00 13,5 10,0 13 7 14 8 ZW 1028,7 10
20.10.2018 07:00:00 13,5 10,1 8 4 18 10 W 1028,3 10
20.10.2018 06:00:00 13,6 10,0 16 9 25 14 NW 1028,3 10
20.10.2018 05:00:00 13,7 10,6 26 14 29 16 WNW 1028,0 10
20.10.2018 04:00:00 13,7 10,5 28 15 29 16 W 1027,7 10
20.10.2018 03:00:00 13,5 9,8 28 15 29 16 WZW 1027,3 10
20.10.2018 02:00:00 13,4 9,9 29 16 29 16 WZW 1027,2 10
20.10.2018 01:00:00 13,1 9,3 26 14 29 16 WZW 1027,2 10
20.10.2018 00:00:00 12,7 8,8 26 14 25 14 WZW 1027,3 10
19.10.2018 23:00:00 12,6 8,2 22 12 25 14 WZW 1027,2 10
19.10.2018 22:00:00 12,5 7,8 22 12 25 14 WZW 1027,2 10
19.10.2018 21:00:00 12,4 6,9 26 14 29 16 WZW 1026,7 10
19.10.2018 20:00:00 12,5 9,0 26 14 29 16 ZW 1026,6 10
19.10.2018 19:00:00 12,4 8,9 26 14 29 16 WZW 1026,0 10
19.10.2018 18:00:00 12,8 9,6 26 14 25 14 WZW 1025,4 10
19.10.2018 17:00:00 13,3 9,8 22 12 32 18 WZW 1025,2 10
19.10.2018 16:00:00 13,6 8,3 24 13 32 18 ZZW 1025,5 10
19.10.2018 15:00:00 13,6 7,9 22 12 25 14 ZZW 1025,8 10
19.10.2018 14:00:00 13,8 7,4 21 11 22 12 Z 1026,2 10
19.10.2018 13:00:00 13,8 6,9 18 10 22 12 ZZW 1026,5 10
19.10.2018 12:00:00 13,8 7,3 22 12 22 12 ZZO 1026,5 10
19.10.2018 11:00:00 13,8 6,4 15 8 22 12 ZO 1026,6 10
19.10.2018 10:00:00 13,6 6,7 15 8 36 19 OZO 1026,0 10
19.10.2018 09:00:00 13,3 6,3 22 12 36 19 OZO 1025,7 10
19.10.2018 08:00:00 13,2 5,6 16 9 29 16 OZO 1026,0 10
19.10.2018 07:00:00 13,3 5,4 2 1 11 6 - 1026,2 10
19.10.2018 06:00:00 13,3 5,0 5 3 14 8 OZO 1026,1 10
19.10.2018 05:00:00 13,2 5,1 8 4 14 8 ZZO 1026,6 10
19.10.2018 04:00:00 13,1 5,4 4 2 25 14 - 1026,9 10
19.10.2018 03:00:00 13,2 6,6 18 10 29 16 - 1027,0 10
19.10.2018 02:00:00 13,1 6,5 21 11 25 14 ONO 1027,2 10
19.10.2018 01:00:00 13,0 5,7 18 10 25 14 O 1027,6 10
19.10.2018 00:00:00 13,0 6,4 21 11 25 14 ONO 1027,7 10
18.10.2018 23:00:00 13,2 6,4 22 12 25 14 ONO 1027,7 10
18.10.2018 22:00:00 12,9 7,3 24 13 29 16 NO 1027,7 10
18.10.2018 21:00:00 12,9 7,9 24 13 29 16 NO 1027,7 10
18.10.2018 20:00:00 12,8 7,5 24 13 29 16 NO 1027,7 10
18.10.2018 19:00:00 12,9 7,5 26 14 29 16 NO 1027,6 10
18.10.2018 18:00:00 13,2 8,2 24 13 29 16 NO 1027,4 10
18.10.2018 17:00:00 13,4 8,4 24 13 29 16 NO 1027,4 10
18.10.2018 16:00:00 13,1 9,0 22 12 25 14 NO 1027,2 31
18.10.2018 15:00:00 13,3 8,8 22 12 25 14 NO 1027,5 10
18.10.2018 14:00:00 13,4 8,8 13 7 25 14 - 1027,6 10
18.10.2018 13:00:00 13,3 8,3 13 7 18 10 NNO 1027,7 10
18.10.2018 12:00:00 13,1 6,8 15 8 18 10 NO 1027,6 10
18.10.2018 11:00:00 12,9 7,6 18 10 22 12 N 1027,3 10
18.10.2018 10:00:00 12,6 6,3 21 11 22 12 N 1026,9 10
18.10.2018 09:00:00 12,5 6,0 22 12 32 18 - 1026,5 10
18.10.2018 08:00:00 12,5 7,9 26 14 29 16 NW 1025,9 10
18.10.2018 07:00:00 12,7 7,8 29 16 29 16 NW 1025,3 10
18.10.2018 06:00:00 12,9 7,9 31 17 32 18 NW 1025,1 10
18.10.2018 05:00:00 12,9 7,4 24 13 32 18 NNW 1025,0 10
18.10.2018 04:00:00 13,1 8,1 26 14 36 19 NNW 1024,8 10
18.10.2018 03:00:00 13,1 8,9 24 13 25 14 N 1024,7 10
18.10.2018 02:00:00 13,2 9,3 24 13 25 14 N 1024,4 10
18.10.2018 01:00:00 13,2 9,9 18 10 25 14 NNW 1024,1 10
18.10.2018 00:00:00 13,4 10,1 15 8 22 12 N 1023,6 10
17.10.2018 23:00:00 13,5 10,7 21 11 25 14 NW 1023,1 10
17.10.2018 22:00:00 13,7 11,0 16 9 22 12 NW 1022,6 10
17.10.2018 21:00:00 14,0 10,4 21 11 22 12 NW 1022,0 10
17.10.2018 20:00:00 14,1 11,0 13 7 18 10 - 1021,3 10
17.10.2018 19:00:00 14,0 12,0 11 6 18 10 NNW 1020,5 10
17.10.2018 18:00:00 13,9 12,1 13 7 22 12 NW 1020,0 10
17.10.2018 17:00:00 14,0 12,0 16 9 18 10 WNW 1019,6 10
17.10.2018 16:00:00 14,0 11,9 16 9 22 12 - 1019,3 10
17.10.2018 15:00:00 14,0 12,1 21 11 22 12 WNW 1018,8 10
17.10.2018 14:00:00 13,9 12,0 18 10 22 12 W 1018,7 10

tt = temperatuur
td = dauwpunt
ff = windsnelheid
fx = windstoten
dd = windrichting
ppp = luchtdruk
vv = zicht

Weerstations in de omgeving